Weather History for Erwin, NC

Change the Weather History Date:

Sunday, October 16, 2011

  Actual Average Record
Temperature  
Mean Temperature 61 °F -  
Max Temperature 78 °F 75 °F 84 °F (1972)
Min Temperature 44 °F 48 °F 34 °F (1987)
Degree Days  
Heating Degree Days 4    
Growing Degree Days 11 (Base 50)    
Moisture  
Dew Point 43 °F    
Average Humidity 65    
Maximum Humidity 100    
Minimum Humidity 24    
Precipitation  
Precipitation 0.00 in - - ()
Sea Level Pressure  
Sea Level Pressure 30.08 in    
Wind  
Wind Speed 1 mph (SSW)    
Max Wind Speed 13 mph    
Max Gust Speed 17 mph    
Visibility 10 miles    
Events      
Averages and records for this station are not official NWS values.
T = Trace of Precipitation, MM = Missing Value Source: NWS Daily Summary

Daily Weather History Graph

Daily Weather History Graph

Search for Another Location

Airport:

Trip Planner

Search our weather history database for the weather conditions in past years. The results will help you decide how hot, cold, wet, or windy it might be!

Date:

Astronomy

Oct. 16, 2011 Rise Set
Actual Time 7:21 AM EDT 6:38 PM EDT
Civil Twilight 6:56 AM EDT 7:04 PM EDT
Nautical Twilight 6:26 AM EDT 7:33 PM EDT
Astronomical Twilight 5:57 AM EDT 8:03 PM EDT
Moon 9:32 PM EDT (10/16) 11:28 AM EDT (10/16)
Length of Visible Light 12h 08m
Length of Day
11h 16m
Waning Gibbous, 82% of the Moon is Illuminated
Oct 16
Waning Gibbous
Oct 19
Last Quarter
Oct 26
New
Nov 2
First Quarter
Nov 10
Full

Hourly Weather History & Observations

Time (EDT) Temp. Windchill Dew Point Humidity Pressure Visibility Wind Dir Wind Speed Gust Speed Precip Events Conditions
12:15 AM 51.8 °F - 46.4 °F 82% 30.04 in 10.0 mi Calm Calm - N/A   Clear
12:35 AM 51.8 °F - 48.2 °F 88% 30.04 in 10.0 mi Calm Calm - N/A   Clear
12:55 AM 50.0 °F - 46.4 °F 87% 30.05 in 10.0 mi Calm Calm - N/A   Clear
1:15 AM 50.0 °F - 46.4 °F 87% 30.05 in 10.0 mi Calm Calm - N/A   Clear
1:35 AM 50.0 °F - 46.4 °F 87% 30.05 in 10.0 mi Calm Calm - N/A   Clear
1:55 AM 50.0 °F - 46.4 °F 87% 30.05 in 10.0 mi Calm Calm - N/A   Clear
2:15 AM 50.0 °F - 46.4 °F 87% 30.05 in 10.0 mi Calm Calm - N/A   Clear
2:35 AM 48.2 °F - 46.4 °F 93% 30.06 in 10.0 mi Calm Calm - N/A   Clear
2:55 AM 48.2 °F - 46.4 °F 93% 30.05 in 10.0 mi Calm Calm - N/A   Clear
3:15 AM 46.4 °F - 44.6 °F 93% 30.05 in 10.0 mi Calm Calm - N/A   Clear
3:35 AM 46.4 °F - 44.6 °F 93% 30.06 in 10.0 mi Calm Calm - N/A   Clear
3:55 AM 46.4 °F - 44.6 °F 93% 30.06 in 10.0 mi Calm Calm - N/A   Clear
4:15 AM 48.2 °F - 42.8 °F 82% 30.06 in 10.0 mi Calm Calm - N/A   Clear
4:35 AM 46.4 °F - 44.6 °F 93% 30.07 in 10.0 mi Calm Calm - N/A   Clear
4:55 AM 44.6 °F - 44.6 °F 100% 30.07 in 10.0 mi Calm Calm - N/A   Clear
5:15 AM 44.6 °F - 44.6 °F 100% 30.08 in 10.0 mi Calm Calm - N/A   Clear
5:35 AM 44.6 °F - 44.6 °F 100% 30.08 in 10.0 mi Calm Calm - N/A   Clear
5:55 AM 44.6 °F - 42.8 °F 93% 30.08 in 10.0 mi Calm Calm - N/A   Clear
6:15 AM 44.6 °F - 42.8 °F 93% 30.08 in 10.0 mi Calm Calm - N/A   Clear
6:35 AM 44.6 °F - 42.8 °F 93% 30.09 in 10.0 mi Calm Calm - N/A   Clear
6:55 AM 44.6 °F - 42.8 °F 93% 30.10 in 10.0 mi Calm Calm - N/A   Clear
7:15 AM 44.6 °F - 42.8 °F 93% 30.10 in 10.0 mi Calm Calm - N/A   Clear
7:35 AM 44.6 °F - 42.8 °F 93% 30.11 in 10.0 mi Calm Calm - N/A   Clear
7:55 AM 44.6 °F 43.1 °F 44.6 °F 100% 30.12 in 10.0 mi SSW 3.5 mph - N/A   Clear
8:15 AM 44.6 °F - 44.6 °F 100% 30.13 in 10.0 mi Calm Calm - N/A   Clear
8:35 AM 46.4 °F - 44.6 °F 93% 30.14 in 10.0 mi Calm Calm - N/A   Clear
8:55 AM 50.0 °F - 44.6 °F 82% 30.14 in 10.0 mi Calm Calm - N/A   Clear
9:15 AM 53.6 °F - 44.6 °F 72% 30.15 in 10.0 mi Calm Calm - N/A   Clear
9:35 AM 55.4 °F - 44.6 °F 67% 30.15 in 10.0 mi Calm Calm - N/A   Clear
9:55 AM 59.0 °F - 44.6 °F 59% 30.14 in 10.0 mi Calm Calm - N/A   Clear
10:15 AM 60.8 °F - 42.8 °F 52% 30.14 in 10.0 mi Calm Calm - N/A   Clear
10:35 AM 64.4 °F - 41.0 °F 42% 30.14 in 10.0 mi Calm Calm - N/A   Clear
10:55 AM 66.2 °F - 42.8 °F 43% 30.14 in 10.0 mi Calm Calm - N/A   Clear
11:15 AM 68.0 °F - 42.8 °F 40% 30.14 in 10.0 mi Calm Calm - N/A   Clear
11:35 AM 69.8 °F - 42.8 °F 38% 30.13 in 10.0 mi Calm Calm - N/A   Clear
11:55 AM 69.8 °F - 41.0 °F 35% 30.13 in 10.0 mi Calm Calm - N/A   Clear
12:15 PM 69.8 °F - 37.4 °F 31% 30.13 in 10.0 mi Calm Calm - N/A   Clear
12:35 PM 71.6 °F - 35.6 °F 27% 30.13 in 10.0 mi West 4.6 mph - N/A   Clear
12:55 PM 71.6 °F - 35.6 °F 27% 30.12 in 10.0 mi Calm Calm - N/A   Clear
1:15 PM 71.6 °F - 37.4 °F 29% 30.10 in 10.0 mi WSW 3.5 mph - N/A   Clear
1:35 PM 73.4 °F - 37.4 °F 27% 30.07 in 10.0 mi SSW 9.2 mph - N/A   Clear
1:55 PM 75.2 °F - 37.4 °F 25% 30.06 in 10.0 mi South 9.2 mph - N/A   Clear
2:15 PM 77.0 °F - 37.4 °F 24% 30.06 in 10.0 mi WSW 8.1 mph - N/A   Clear
2:55 PM 77.0 °F - 41.0 °F 28% 30.04 in 10.0 mi South 8.1 mph - N/A   Clear
3:15 PM 77.0 °F - 41.0 °F 28% 30.03 in 10.0 mi South 9.2 mph - N/A   Clear
3:35 PM 78.8 °F - 41.0 °F 26% 30.02 in 10.0 mi South 11.5 mph - N/A   Clear
3:55 PM 77.0 °F - 39.2 °F 26% 30.02 in 10.0 mi SSW 9.2 mph 16.1 mph N/A   Clear
4:15 PM 78.8 °F - 39.2 °F 24% 30.02 in 10.0 mi South 12.7 mph 16.1 mph N/A   Clear
4:35 PM 78.8 °F - 39.2 °F 24% 30.01 in 10.0 mi SW 9.2 mph - N/A   Clear
4:55 PM 78.8 °F - 41.0 °F 26% 30.01 in 10.0 mi SSW 8.1 mph - N/A   Clear
5:15 PM 77.0 °F - 41.0 °F 28% 30.00 in 10.0 mi SSW 10.4 mph 17.3 mph N/A   Clear
5:35 PM 77.0 °F - 41.0 °F 28% 30.00 in 10.0 mi SSW 8.1 mph - N/A   Clear
5:55 PM 75.2 °F - 42.8 °F 31% 30.00 in 10.0 mi South 8.1 mph - N/A   Clear
6:15 PM 71.6 °F - 42.8 °F 35% 30.00 in 10.0 mi South 8.1 mph - N/A   Clear
6:35 PM 69.8 °F - 44.6 °F 40% 30.00 in 10.0 mi South 5.8 mph - N/A   Clear
7:35 PM 64.4 °F - 46.4 °F 52% 30.00 in 10.0 mi South 5.8 mph - N/A   Clear
7:55 PM 64.4 °F - 46.4 °F 52% 30.00 in 10.0 mi South 4.6 mph - N/A   Clear
8:15 PM 62.6 °F - 46.4 °F 55% 30.00 in 10.0 mi South 4.6 mph - N/A   Clear
8:35 PM 62.6 °F - 46.4 °F 55% 30.00 in 10.0 mi SSE 5.8 mph - N/A   Clear
8:55 PM 62.6 °F - 46.4 °F 55% 30.00 in 10.0 mi South 5.8 mph - N/A   Clear
9:15 PM 62.6 °F - 46.4 °F 55% 30.00 in 10.0 mi South 6.9 mph - N/A   Clear
9:35 PM 62.6 °F - 46.4 °F 55% 30.00 in 10.0 mi South 5.8 mph - N/A   Clear
9:55 PM 60.8 °F - 46.4 °F 59% 30.00 in 10.0 mi South 4.6 mph - N/A   Clear
10:15 PM 60.8 °F - 46.4 °F 59% 30.00 in 10.0 mi South 5.8 mph - N/A   Clear
10:35 PM 60.8 °F - 48.2 °F 63% 30.00 in 10.0 mi South 5.8 mph - N/A   Clear
10:55 PM 60.8 °F - 48.2 °F 63% 30.00 in 10.0 mi South 5.8 mph - N/A   Clear
11:15 PM 60.8 °F - 50.0 °F 68% 30.00 in 10.0 mi South 5.8 mph - N/A   Clear
11:35 PM 59.0 °F - 50.0 °F 72% 30.00 in 10.0 mi South 5.8 mph - N/A   Clear
11:55 PM 59.0 °F - 50.0 °F 72% 30.00 in 10.0 mi South 5.8 mph - N/A   Clear